Dewpoint
36 34 30 31 33 37 40 38 38 43 46 47 48 48 50 50 51 51 50 50 51 50 50 52 53 52 52
34 31 31 33 35 36 37 37 37 42 45 46 46 47 49 49 50 51 51 48 50 49 48 49 49 50 50
30 32 34 35 36 37 36 37 37 42 43 42 42 44 47 48 49 50 49 48 48 50 48 47 47 48 49
32 32 34 36 37 37 37 38 38 38 40 41 43 46 47 46 47 47 46 47 47 47 49 48 46 46 46
33 33 34 34 35 36 36 36 37 37 36 40 40 39 38 39 40 45 45 46 46 46 48 48 47 46 45
33 33 33 33 35 36 35 34 32 36 34 33 36 35 36 36 40 44 44 45 45 46 48 46 45 44 44
36 35 34 34 34 35 35 34 33 34 33 32 33 33 35 35 39 40 43 42 43 44 46 45 44 44 43
38 37 37 37 36 35 35 35 34 34 34 31 33 33 35 35 38 39 41 41 42 41 41 41 41 41 41
41 40 40 40 40 37 34 34 33 32 34 32 32 33 34 33 34 36 40 39 38 37 37 37 38 39 38
35 36 37 38 40 38 36 34 33 31 32 30 28 29 28 34 37 38 39 39 38 36 36 35 36 36 36
33 33 34 34 34 35 37 36 35 33 33 32 28 26 26 27 30 32 33 32 32 33 33 33 34 34 33
31 31 31 32 33 34 34 36 38 36 36 35 32 28 24 23 26 28 31 32 31 30 31 31 32 33 34
31 31 32 32 31 29 31 30 32 34 36 34 34 31 28 23 22 24 25 26 29 29 29 30 31 29 29
31 32 32 27 32 33 33 34 33 32 33 34 34 33 31 31 30 28 27 24 25 27 30 30 29 29 28
30 30 30 29 30 28 33 32 31 31 32 33 32 33 33 32 29 28 27 27 27 29 29 28 29 28 27
29 29 30 28 26 27 31 30 29 30 31 32 31 29 29 30 32 28 27 27 28 29 29 28 28 29 29
28 29 30 27 27 28 30 31 30 30 30 31 31 28 25 22 23 32 27 27 28 28 29 28 28 28 28
Lifted_Index
16 16 17 18 18 17 16 16 17 16 15 14 14 14 13 13 12 12 12 12 12 12 11 11 10 10 9
15 16 17 17 17 16 16 16 16 16 15 15 15 14 14 13 13 12 12 12 12 12 12 11 11 10 10
15 15 16 17 16 16 15 15 15 16 16 16 16 15 14 13 13 13 13 13 13 13 12 12 11 11 11
15 15 15 15 15 15 14 14 14 14 15 15 15 14 14 13 13 13 13 13 13 13 12 12 12 11 11
15 14 14 13 13 13 13 12 12 13 13 14 14 14 14 14 14 14 13 13 13 13 12 12 12 12 11
15 14 13 13 12 12 12 11 11 12 12 12 13 13 14 14 14 14 14 14 13 13 12 12 12 12 11
15 14 14 13 12 11 11 10 10 11 11 11 11 12 13 14 14 14 14 14 14 13 13 12 12 12 12
14 13 13 12 11 11 11 10 10 11 11 11 10 11 12 13 14 14 14 15 15 14 14 13 13 12 12
12 12 12 11 11 11 11 10 10 11 11 11 10 10 11 12 13 13 14 14 15 15 15 14 14 14 13
12 11 11 11 10 10 10 10 10 10 11 11 11 10 10 10 11 12 13 14 14 14 15 15 15 15 14
11 11 11 11 10 10 10 10 10 10 10 11 11 10 10 10 11 12 12 13 13 14 14 15 15 15 15
11 11 11 10 10 9 9 9 9 9 10 10 10 10 10 10 10 10 11 12 13 14 14 14 15 15 15
10 10 10 10 10 9 9 9 9 9 9 10 10 10 10 10 10 9 10 11 12 13 14 14 14 14 14
9 10 10 9 9 9 9 10 10 10 10 10 10 10 10 10 10 9 9 9 11 12 13 14 14 14 15
8 8 9 9 9 9 10 10 10 10 10 10 10 10 10 10 10 10 9 9 10 11 12 13 13 14 15
7 8 8 8 9 9 10 10 10 10 10 10 10 10 10 10 11 10 10 10 10 11 12 12 12 13 14
7 7 8 8 8 9 9 10 10 10 10 10 9 9 9 10 10 11 10 10 10 11 12 12 12 13 14